Location: Centerville
(32.8776°N, 96.6203°W)
Time: 12:59:45
(UTC+00:00)

Resurs 1-4 Rocket - Pass Details

Date: 17 June 2021
Orbit: 800 x 813 km, 98.6° (Epoch: 30 July)

Event Time Altitude Azimuth Distance (km) Brightness Sun altitude
Rises 07:35:37 0° 17° (NNE) 3,336 6.5 -31.4°
Reaches altitude 10° 07:38:00 10° 22° (NNE) 2,403 5.4 -31.3°
Enters shadow 07:42:24 52° 64° (ENE) 1,007 2.7 -31.0°
